星链-5831 (STARLINK-5831 )

导读 | 星芒AI

STARLINK-5831 是 SpaceX 星链计划中的一颗低轨道通信卫星,属于第58组星链卫星的一部分。该卫星于2023年发射,旨在为全球用户提供高速互联网服务。它运行在约550公里高的近地轨道,采用先进通信技术,支持宽带数据传输。星链项目通过部署大量卫星,构建覆盖全球的网络系统,尤其服务于偏远地区。STARLINK-5831 在提升网络覆盖率和连接质量方面发挥着重要作用。

基本信息
目录编号:
57332
目录名称:
STARLINK-5831
国际标识:
2023-099E
轨道中心:
EARTH
卫星名称:
星链-5831
卫星全名:
星链-5831 (STARLINK-5831 )
卫星状态:
在轨 (已飞行842 天)
发射日期:
2023-07-16 UTC
国别 :
美国 (US)
星等 :
--
轨道信息
数据来源 国际轨道数据
星历时间: 2025-11-04T09:06:34+0800
10小时前
查看轨道信息
半长轴: 6937.218km
偏心率: 0.0000998
轨道倾角: 43.003°
近地点辐角 277.474°
升交点赤经 211.934°
平近点角 82.599°
近地点: 558.39km
远地点: 559.776km
周期: 95.838分钟
每日圈数: 15.025358
详细信息
固有亮度:
5
最大亮度:
2.5
卫星平台:
Starlink v1.5
覆盖范围:
全球
运营商:
太空探索技术公司
运营商所在国:
美国
制造商(研发单位):
太空探索技术公司
制造商所在国:
美国
使用方式:
暂无
卫星简介
星链(Starlink)计划是由太空探索技术公司(SpaceX)提出的一个巨型低轨卫星互联网星座项目,计划在2019年至2024年间在太空搭建由约1.2万颗卫星组成的“星链”网络,其中1584颗将部署在地球上空550千米处的近地轨道,并从2020年开始工作。该卫星仍在工作。
2D轨道图
3D轨道图
轨道高度分析图
轨道倾角分析图
轨道综合分析图
查看轨道综合分析图